Weather History for Livingston, MT

Change the Weather History Date:

Tuesday, October 4, 2011

  Actual Average Record
Temperature  
Mean Temperature 64 °F 49 °F  
Max Temperature 78 °F 64 °F 84 °F (1996)
Min Temperature 50 °F 34 °F 19 °F (1964)
Degree Days  
Heating Degree Days 2 16  
Month to date heating degree days 62  
Since 1 July heating degree days 471  
Cooling Degree Days 0 0  
Month to date cooling degree days 0  
Year to date cooling degree days 229  
Growing Degree Days 14 (Base 50)    
Moisture  
Dew Point 40 °F    
Average Humidity 40    
Maximum Humidity 57    
Minimum Humidity 28    
Precipitation  
Precipitation 0.00 in 0.05 in 1.74 in (1992)
Month to date precipitation 0.20  
Year to date precipitation 12.64  
Sea Level Pressure  
Sea Level Pressure 29.68 in    
Wind  
Wind Speed 10 mph (SW)    
Max Wind Speed 24 mph    
Max Gust Speed 34 mph    
Visibility 10 miles    
Events      
T = Trace of Precipitation, MM = Missing Value Source: NWS Daily Summary

Daily Weather History Graph

Daily Weather History Graph

Search for Another Location

Airport:

Trip Planner

Search our weather history database for the weather conditions in past years. The results will help you decide how hot, cold, wet, or windy it might be!

Date:

Astronomy

Oct. 04, 2011 Rise Set
Actual Time 7:23 AM MDT 6:56 PM MDT
Civil Twilight 6:53 AM MDT 7:26 PM MDT
Nautical Twilight 6:19 AM MDT 8:00 PM MDT
Astronomical Twilight 5:44 AM MDT 8:35 PM MDT
Moon 3:19 PM MDT (10/4) No Moon Set
Length of Visible Light 12h 32m
Length of Day
11h 32m
First Quarter, 56% of the Moon is Illuminated
Oct 4
First Quarter
Oct 11
Full
Oct 19
Last Quarter
Oct 26
New
Nov 2
First Quarter

Hourly Weather History & Observations

Time (MDT) Temp. Dew Point Humidity Pressure Visibility Wind Dir Wind Speed Gust Speed Precip Events Conditions
12:53 AM 55.0 °F 34.0 °F 45% 29.76 in 10.0 mi Calm Calm - N/A   Clear
1:53 AM 50.0 °F 35.1 °F 57% 29.77 in 10.0 mi WNW 3.5 mph - N/A   Partly Cloudy
2:53 AM 53.1 °F 36.0 °F 52% 29.75 in 10.0 mi Variable 4.6 mph - N/A   Clear
3:51 AM 64.4 °F 37.4 °F 37% 29.87 in 10.0 mi WSW 16.1 mph - N/A   Clear
3:53 AM 64.9 °F 37.0 °F 36% 29.71 in 10.0 mi WSW 17.3 mph - N/A   Clear
4:53 AM 64.4 °F 37.4 °F 37% 29.86 in 10.0 mi SW 16.1 mph - N/A   Partly Cloudy
5:53 AM 63.0 °F 39.0 °F 41% 29.70 in 10.0 mi SW 13.8 mph - N/A   Clear
6:53 AM 62.1 °F 39.0 °F 43% 29.71 in 10.0 mi WSW 12.7 mph - N/A   Partly Cloudy
7:53 AM 64.4 °F 41.0 °F 42% 29.83 in 10.0 mi SSW 16.1 mph - N/A   Clear
8:53 AM 64.9 °F 42.1 °F 43% 29.70 in 10.0 mi SW 10.4 mph - N/A   Clear
9:53 AM 68.0 °F 43.0 °F 40% 29.69 in 10.0 mi SW 17.3 mph 26.5 mph N/A   Partly Cloudy
10:53 AM 73.0 °F 43.0 °F 34% 29.67 in 10.0 mi SSW 15.0 mph - N/A   Clear
11:53 AM 77.0 °F 42.1 °F 29% 29.66 in 10.0 mi SW 15.0 mph 24.2 mph N/A   Clear
12:53 PM 73.9 °F 42.1 °F 32% 29.65 in 10.0 mi SW 24.2 mph 34.5 mph N/A   Mostly Cloudy
1:53 PM 77.0 °F 41.0 °F 28% 29.64 in 10.0 mi SW 20.7 mph 29.9 mph N/A   Scattered Clouds
2:53 PM 73.9 °F 41.0 °F 30% 29.62 in 10.0 mi SW 23.0 mph 28.8 mph N/A   Mostly Cloudy
3:53 PM 71.6 °F 39.2 °F 31% 29.73 in 10.0 mi WSW 9.2 mph - N/A   Overcast
4:53 PM 71.1 °F 42.1 °F 35% 29.60 in 10.0 mi SSW 11.5 mph - N/A   Overcast
5:53 PM 71.1 °F 41.0 °F 34% 29.60 in 10.0 mi SSW 16.1 mph 23.0 mph N/A   Partly Cloudy
6:53 PM 68.0 °F 39.9 °F 36% 29.61 in 10.0 mi SSW 13.8 mph - N/A   Overcast
7:53 PM 62.1 °F 41.0 °F 46% 29.61 in 10.0 mi SSW 9.2 mph - N/A   Clear
8:53 PM 64.0 °F 42.1 °F 45% 29.59 in 10.0 mi WSW 13.8 mph - N/A   Partly Cloudy
9:53 PM 64.9 °F 42.1 °F 43% 29.56 in 10.0 mi WSW 10.4 mph - N/A   Mostly Cloudy
10:53 PM 62.1 °F 41.0 °F 46% 29.57 in 10.0 mi Variable 4.6 mph - N/A   Overcast
11:53 PM 59.0 °F 41.0 °F 51% 29.56 in 10.0 mi West 6.9 mph - N/A   Overcast